COSMOS 2251 DEB, 35012

Orbit data source: Space-Track

COSMOS 2251 DEB, 35012 is space debris in LEO originally from a launch on Wed, 16 Jun 1993 UTC launched from the Plesetsk Missile And Space Complex (PKMTR). The debris from Iridium 33, an American commercial communications satellite, has been tracked extensively since its accidental collision with the defunct Russian satellite Cosmos 2251 in 2009. This event, occurring at high speed in low Earth orbit (LEO), generated thousands of pieces of space debris, significantly increasing the risk of further collisions. The Iridium 33 debris cloud has impacted space traffic management and orbital debris mitigation strategies, making it a subject of ongoing study in space situational awareness.

Loading next visibility...
Identifier
35012, 1993-036AFZ
Orbit
LEO
Country
Flag of CISCIS
Related business
Manufacturer
Unknown
Mission
Spacecraft
Bus & Motor
Unknown
Mass
Unknown
Launch date (UTC)
1993-06-16 (33 years ago)
Launch vehicle
Unknown
Launch site
Plesetsk Missile And Space Complex (PKMTR)
Object type
Payload
Rocket body
Debris
Shape & HBR
Unknown shape, 0.1 m
Radar Cross Section
Small (<0.1 m²)

Expand to show TLE details & history
Last TLE update: 21 hours ago

TLE from 21 hours ago
0 COSMOS 2251 DEB
1 35012U 93036AFZ 25351.36465539  .00000534  00000-0  15312-3 0  9996
2 35012  74.0209 103.1050 0081548 242.2771 117.0098 14.45554969876285
Epoch: 2025-12-17T08:45Z
TLE epoch observation values (Epoch: 2025-12-17T08:45:06.225Z)
Latitude
-0.00007°
Longitude
-114.40653°
Altitude
769.566 km
Speed
7.456 km/s
True Right ascension
06h 52m 25s
True Declination
0° 00' 00"
Sunlit
Object was in full shadow at epoch
Visualization orbit readout
Latitude
Unknown
Longitude
Unknown
Altitude
Unknown
Speed
Unknown
Apparent Right ascension
Unknown
Apparent Declination
Unknown
Sunlit
N/A
Visualization observer readout
Local Sidereal Time
04:36:26
Azimuth
Unknown
Elevation
Unknown
Doppler factor
Unknown
Orbital elements
Apogee altitude
795.847 km
Perigee altitude
679.789 km
Semi-major axis
7,115.955 km
Eccentricity
0.00815
Inclination
74.0209°
RAAN
103.105°
Arg. of periapsis
242.2771°
True anomaly
117.83848°
Mean anomaly
117.0098°
Eccentric anomaly
117.42453°
Mean motion
3.61571 °/min
Orbital period
99.57 mins
BSTAR
0.00015312

Documentation

Showing up to 5 results
|